• In Portugal
  • List of Countries
  • For 7 days
  • Water Temperature
  • Satellite Maps
  • Weather Map
  • Weather Widgets
  • user-avatar
    Login

    Hourly Weather Lankaran

    Today, 28 May, Monday

    Time Temperature Precipitation Wind Pressure Humidity
    00:00 +8°C° 0 mm 1 mps 638 mmHg 90%
    01:00 +8°C° 0 mm 1 mps 638 mmHg 90%
    02:00 +8°C° 0 mm 1 mps 638 mmHg 90%
    03:00 +8°C° 0 mm 1 mps 637 mmHg 90%
    04:00 +9°C° 0 mm 1 mps 637 mmHg 85%
    05:00 +11°C° 0 mm 1 mps 638 mmHg 80%
    06:00 +12°C° 0 mm 1 mps 638 mmHg 75%
    07:00 +14°C° 0 mm 1 mps 638 mmHg 69%
    08:00 +16°C° 0 mm 2 mps 638 mmHg 62%
    09:00 +18°C° 0 mm 2 mps 638 mmHg 56%
    10:00 +19°C° 0 mm 2 mps 638 mmHg 53%
    11:00 +20°C° 0 mm 3 mps 638 mmHg 51%
    12:00 +21°C° 0 mm 3 mps 638 mmHg 48%
    13:00 +21°C° 0 mm 3 mps 638 mmHg 49%
    14:00 +22°C° 0 mm 3 mps 637 mmHg 49%
    15:00 +22°C° 0 mm 3 mps 637 mmHg 50%
    16:00 +21°C° 0 mm 3 mps 636 mmHg 55%
    17:00 +20°C° 0 mm 3 mps 636 mmHg 60%
    18:00 +19°C° 0 mm 3 mps 635 mmHg 65%
    19:00 +17°C° 0 mm 2 mps 635 mmHg 71%
    20:00 +15°C° 0 mm 2 mps 635 mmHg 78%
    21:00 +14°C° 0 mm 1 mps 635 mmHg 85%
    22:00 +14°C° 0 mm 1 mps 635 mmHg 85%
    23:00 +13°C° 0 mm 1 mps 635 mmHg 84%

    Tomorrow, 29 May, Tuesday

    Time Temperature Precipitation Wind Pressure Humidity
    00:00 +13°C° 0 mm 1 mps 635 mmHg 84%
    01:00 +13°C° 0 mm 1 mps 634 mmHg 84%
    02:00 +12°C° 0 mm 1 mps 634 mmHg 84%
    03:00 +12°C° 0 mm 1 mps 634 mmHg 85%
    04:00 +13°C° 0 mm 1 mps 635 mmHg 81%
    05:00 +14°C° 0 mm 1 mps 635 mmHg 77%
    06:00 +15°C° 0 mm 1 mps 635 mmHg 74%
    07:00 +16°C° 0 mm 2 mps 636 mmHg 68%
    08:00 +17°C° 0 mm 3 mps 636 mmHg 61%
    09:00 +19°C° 0 mm 4 mps 636 mmHg 55%
    10:00 +19°C° 0 mm 4 mps 636 mmHg 56%
    11:00 +19°C° 0 mm 4 mps 636 mmHg 57%
    12:00 +19°C° 0 mm 4 mps 636 mmHg 58%
    13:00 +18°C° 0.2 mm 4 mps 636 mmHg 64%
    14:00 +15°C° 0.2 mm 5 mps 636 mmHg 70%
    15:00 +14°C° 0.2 mm 5 mps 635 mmHg 76%
    16:00 +13°C° 0.1 mm 4 mps 635 mmHg 79%
    17:00 +13°C° 0.1 mm 4 mps 635 mmHg 81%
    18:00 +12°C° 0.1 mm 3 mps 635 mmHg 84%
    19:00 +11°C° 0.5 mm 3 mps 635 mmHg 87%
    20:00 +10°C° 0.5 mm 3 mps 635 mmHg 89%
    21:00 +10°C° 0.5 mm 3 mps 635 mmHg 92%
    22:00 +10°C° 0.1 mm 3 mps 635 mmHg 92%
    23:00 +9°C° 0.1 mm 3 mps 635 mmHg 92%

    Day after tomorrow, 30 May, Wednesday

    Time Temperature Precipitation Wind Pressure Humidity
    00:00 +9°C° 0.1 mm 3 mps 635 mmHg 92%
    01:00 +9°C° 0.1 mm 3 mps 635 mmHg 92%
    02:00 +9°C° 0.1 mm 2 mps 635 mmHg 92%
    03:00 +9°C° 0.1 mm 2 mps 635 mmHg 92%
    04:00 +9°C° 0 mm 2 mps 635 mmHg 90%
    05:00 +9°C° 0 mm 2 mps 635 mmHg 89%
    06:00 +10°C° 0 mm 2 mps 635 mmHg 87%
    07:00 +12°C° 0 mm 2 mps 635 mmHg 81%
    08:00 +14°C° 0 mm 2 mps 636 mmHg 76%
    09:00 +14°C° 0 mm 3 mps 636 mmHg 70%
    10:00 +16°C° 0.1 mm 3 mps 636 mmHg 67%
    11:00 +17°C° 0.1 mm 3 mps 636 mmHg 65%
    12:00 +18°C° 0.1 mm 3 mps 636 mmHg 62%
    13:00 +18°C° 0.1 mm 3 mps 636 mmHg 61%
    14:00 +18°C° 0.1 mm 3 mps 635 mmHg 61%
    15:00 +18°C° 0.1 mm 3 mps 635 mmHg 60%
    16:00 +17°C° 0.3 mm 3 mps 635 mmHg 64%
    17:00 +17°C° 0.3 mm 2 mps 635 mmHg 68%
    18:00 +16°C° 0.3 mm 2 mps 634 mmHg 72%
    19:00 +14°C° 0.3 mm 2 mps 634 mmHg 76%
    20:00 +13°C° 0.3 mm 1 mps 634 mmHg 80%
    21:00 +12°C° 0.3 mm 1 mps 634 mmHg 84%
    22:00 +12°C° 0.1 mm 1 mps 633 mmHg 84%
    23:00 +12°C° 0.1 mm 1 mps 633 mmHg 83%

    31 May, Thursday

    Time Temperature Precipitation Wind Pressure Humidity
    00:00 +12°C° 0.1 mm 1 mps 633 mmHg 83%
    01:00 +12°C° 0.3 mm 1 mps 632 mmHg 82%
    02:00 +12°C° 0.3 mm 1 mps 632 mmHg 81%
    03:00 +13°C° 0.3 mm 1 mps 632 mmHg 79%
    04:00 +13°C° 0.3 mm 1 mps 632 mmHg 77%
    05:00 +14°C° 0.3 mm 1 mps 632 mmHg 74%
    06:00 +15°C° 0.3 mm 1 mps 633 mmHg 72%
    07:00 +17°C° 0.1 mm 2 mps 633 mmHg 65%
    08:00 +19°C° 0.1 mm 2 mps 633 mmHg 58%
    09:00 +22°C° 0.1 mm 3 mps 633 mmHg 51%
    10:00 +23°C° 0 mm 4 mps 633 mmHg 46%
    11:00 +26°C° 0 mm 4 mps 633 mmHg 40%
    12:00 +27°C° 0 mm 5 mps 633 mmHg 35%
    13:00 +27°C° 0.1 mm 5 mps 632 mmHg 35%
    14:00 +27°C° 0.1 mm 5 mps 632 mmHg 34%
    15:00 +27°C° 0.1 mm 5 mps 631 mmHg 33%
    16:00 +26°C° 0 mm 4 mps 631 mmHg 38%
    17:00 +25°C° 0 mm 4 mps 631 mmHg 42%
    18:00 +22°C° 0 mm 3 mps 630 mmHg 47%
    19:00 +21°C° 0 mm 3 mps 630 mmHg 47%
    20:00 +19°C° 0 mm 3 mps 630 mmHg 47%
    21:00 +18°C° 0 mm 3 mps 630 mmHg 47%
    22:00 +17°C° 0 mm 3 mps 630 mmHg 49%
    23:00 +16°C° 0 mm 3 mps 630 mmHg 51%

    1 June, Friday

    Time Temperature Precipitation Wind Pressure Humidity
    00:00 +15°C° 0 mm 4 mps 629 mmHg 54%
    01:00 +15°C° 0 mm 4 mps 630 mmHg 51%
    02:00 +14°C° 0 mm 3 mps 630 mmHg 49%
    03:00 +14°C° 0 mm 3 mps 630 mmHg 47%
    04:00 +16°C° 0 mm 3 mps 630 mmHg 46%
    05:00 +17°C° 0 mm 3 mps 630 mmHg 46%
    06:00 +18°C° 0 mm 3 mps 631 mmHg 45%
    07:00 +20°C° 0 mm 4 mps 631 mmHg 39%
    08:00 +22°C° 0 mm 4 mps 632 mmHg 34%
    09:00 +26°C° 0 mm 5 mps 633 mmHg 28%
    10:00 +26°C° 0 mm 5 mps 633 mmHg 27%
    11:00 +27°C° 0 mm 5 mps 633 mmHg 26%
    12:00 +28°C° 0 mm 5 mps 632 mmHg 24%
    13:00 +28°C° 0 mm 5 mps 632 mmHg 25%
    14:00 +29°C° 0 mm 5 mps 632 mmHg 26%
    15:00 +29°C° 0 mm 5 mps 631 mmHg 26%
    16:00 +27°C° 0 mm 5 mps 631 mmHg 31%
    17:00 +26°C° 0 mm 4 mps 631 mmHg 36%
    18:00 +25°C° 0 mm 3 mps 630 mmHg 40%
    19:00 +22°C° 0 mm 3 mps 630 mmHg 42%
    20:00 +20°C° 0 mm 2 mps 630 mmHg 43%
    21:00 +18°C° 0 mm 2 mps 630 mmHg 45%
    22:00 +17°C° 0 mm 2 mps 630 mmHg 45%
    23:00 +17°C° 0 mm 2 mps 630 mmHg 44%

    2 June, Saturday

    Time Temperature Precipitation Wind Pressure Humidity
    00:00 +17°C° 0 mm 2 mps 629 mmHg 44%
    01:00 +16°C° 0 mm 2 mps 629 mmHg 47%
    02:00 +16°C° 0 mm 2 mps 630 mmHg 49%
    03:00 +16°C° 0 mm 3 mps 630 mmHg 51%
    04:00 +17°C° 0 mm 3 mps 630 mmHg 51%
    05:00 +18°C° 0 mm 3 mps 630 mmHg 51%
    06:00 +19°C° 0 mm 3 mps 631 mmHg 51%
    07:00 +21°C° 0 mm 3 mps 631 mmHg 46%
    08:00 +23°C° 0 mm 4 mps 632 mmHg 40%
    09:00 +26°C° 0 mm 4 mps 633 mmHg 34%
    10:00 +26°C° 0 mm 4 mps 633 mmHg 32%
    11:00 +27°C° 0 mm 4 mps 633 mmHg 31%
    12:00 +28°C° 0 mm 4 mps 633 mmHg 29%
    13:00 +28°C° 0 mm 4 mps 632 mmHg 29%
    14:00 +28°C° 0 mm 4 mps 632 mmHg 30%
    15:00 +28°C° 0 mm 4 mps 632 mmHg 30%
    16:00 +27°C° 0 mm 3 mps 631 mmHg 35%
    17:00 +25°C° 0 mm 3 mps 631 mmHg 40%
    18:00 +24°C° 0 mm 2 mps 631 mmHg 46%
    19:00 +21°C° 0 mm 2 mps 631 mmHg 55%
    20:00 +18°C° 0 mm 2 mps 631 mmHg 63%
    21:00 +15°C° 0 mm 1 mps 631 mmHg 72%
    22:00 +15°C° 0 mm 1 mps 631 mmHg 73%
    23:00 +14°C° 0 mm 2 mps 631 mmHg 73%
    Show more